Home > Weather > Meilen > Past weeks

Flag for Switzerland Past Weather in Meilen, Zurich, Switzerland — Yesterday and Last 2 Weeks

Now
56 °F

Cool.


Feels Like: 54 °F
Forecast: 52 / 68 °F
Wind: 6 mph from Southwest

Location: Zuerich-Fluntern

Current Time: May 31, 2016 at 2:22:29 AM

Latest Report: May 31, 2016 at 1:00 AM


Visibility: N/A

Pressure: 29.83 "Hg

Humidity: 76%

Dew Point: 48 °F

Location of MeilenLocation

Past Weather in Meilen — Graph

°F

Meilen Temperature Yesterday

Maximum temperature yesterday: 64 °F (at 1:00 PM)
Minimum temperature yesterday: 54 °F (at 4:00 AM)
Average temperature yesterday: 58 °F

High & Low Weather Summary for the Past Weeks

 TemperatureHumidityPressure
High79 °F (May 27, 6:00 PM)96% (May 24, 5:00 AM)30.23 "Hg (May 24, 5:00 AM)
Low42 °F (May 23, 10:00 AM)28% (May 21, 4:00 PM)29.70 "Hg (May 22, 4:00 PM)
Average56 °F75%29.96 "Hg
* Reported May 16 1:00 AM — May 31 1:00 AM, Meilen, Weather by CustomWeather, © 2016

Note: Actual official high and low records may vary slightly from our data, if they occured in-between our weather recording intervals... More about our weather records

Advertising

Meilen Weather History for the Previous 24 Hours

Scroll right to see more
 ConditionsComfort  
Time TempWeatherWind HumidityBarometerVisibility
1:00 AM
Tue, May 31
56 °FCool.6 mph76%29.83 "HgN/A
12:00 AM56 °FCool.10 mph73%29.83 "HgN/A
11:00 PM
Mon, May 30
56 °FCool.5 mph76%29.83 "HgN/A
10:00 PM57 °FCool.5 mph76%29.82 "HgN/A
9:00 PM58 °FCool.8 mph72%29.80 "HgN/A
8:00 PM60 °FPartly sunny.10 mph69%29.78 "HgN/A
7:00 PM61 °FCool.13 mph66%29.76 "HgN/A
6:00 PM62 °FCool.14 mph64%29.76 "HgN/A
5:00 PM63 °FMild.16 mph61%29.75 "HgN/A
4:00 PM63 °FMild.15 mph61%29.75 "HgN/A
3:00 PM63 °FMild.15 mph63%29.74 "HgN/A
2:00 PM63 °FOvercast.15 mph64%29.74 "HgN/A
1:00 PM64 °FMild.14 mph65%29.73 "HgN/A
11:00 AM60 °FCool.10 mph72%29.74 "HgN/A
10:00 AM59 °FCool.12 mph77%29.74 "HgN/A
9:00 AM58 °FCool.13 mph78%29.75 "HgN/A
7:00 AM55 °FCool.9 mph86%29.75 "HgN/A
6:00 AM55 °FCool.9 mph86%29.76 "HgN/A
5:00 AM54 °FCool.10 mph90%29.76 "HgN/A
4:00 AM54 °FCool.13 mph92%29.76 "HgN/A
3:00 AM55 °FCool.12 mph91%29.76 "HgN/A
2:00 AM55 °FCool.8 mph91%29.77 "HgN/A
Weather by CustomWeather, © 2016

See weather overviewHow to use our weather pages